Miscellaneous Local Product
Issued by NWS North Platte, NE

Home | Current Version | Previous Version | Text Only | Print | Product List | Glossary On
Versions: 1 2 3 4 5 6 7 8 9 10 11 12 13 14 15 16 17 18 19 20 21 22 23 24 25 26 27 28 29 30 31 32 33 34 35 36 37 38 39 40 41 42 43 44 45 46 47 48 49 50
000
AXUS43 KLBF 261810
MISLBF


WESTERN AND NORTH CENTRAL NEBRASKA HOURLY WEATHER ROUNDUP
NATIONAL WEATHER SERVICE NORTH PLATTE NE
100 PM CDT WED APR 26 2017

NOTE: "FAIR" INDICATES FEW OR NO CLOUDS BELOW 12,000 FEET WITH NO
SIGNIFICANT WEATHER AND/OR OBSTRUCTIONS TO VISIBILITY.

NOTE: STATIONS NOT REPORTING VARIABLES SUCH AS SKY/WEATHER OR
PRESSURE ARE PROVIDED BY RAWS AND APRS NETWORKS AND ARE NOT UNDER
NATIONAL WEATHER SERVICE QUALITY CONTROL.

...OBSERVATIONS IN AND NEAR THE EASTERN PANHANDLE OF NEBRASKA...

CITY           SKY/WX    TMP DP  RH WIND       PRES   REMARKS
PINE RIDGE     CLOUDY    37  29  72 NW7       29.80F WCI  32
CHADRON        CLOUDY    35  28  75 VRB3      29.81F
ALLIANCE       PTSUNNY   40  31  70 N10       29.76F WCI  33
SIDNEY         SUNNY     50  33  52 N15G22    29.76F
CRESCENT LAKE    N/A     42  30  63 N9G18       N/A
$$

...OBSERVATIONS IN NORTHERN NEBRASKA AND FAR SOUTHERN SOUTH DAKOTA...

CITY           SKY/WX    TMP DP  RH WIND       PRES   REMARKS
WINNER         CLOUDY    38  28  67 NW23G31   29.78F WCI  27
VALENTINE      CLOUDY    37  26  64 NW17G25   29.78F WCI  27
THEDFORD       CLOUDY    37  29  73 NW16G24   29.79F WCI  27
AINSWORTH      CLOUDY    35  29  78 NW17G26   29.77F WCI  25
O`NEILL        CLOUDY    38  29  68 NW25      29.74S WCI  27
ORD            CLOUDY    39  29  67 NW23      29.73F WCI  28
BROKEN BOW     CLOUDY    40  30  67 NW18G25   29.75F WCI  31
VALENTINE NWR    N/A     34  27  75 NW17G25     N/A  WCI  23
HALSEY           N/A     35  27  71 NW13G23     N/A  WCI  26
BUTTE            N/A     35  28  76 N20G28      N/A  WCI  24
CHAMBERS         N/A     39  29  68 N12         N/A  WCI  32
EWING            N/A     38  32  79 NW15G22     N/A  WCI  29
$$

...OBSERVATIONS IN SOUTHWEST NEBRASKA AND FAR NORTHEAST COLORADO...

CITY           SKY/WX    TMP DP  RH WIND       PRES   REMARKS
HOLYOKE        FAIR      52  32  46 N12G17    29.77F
IMPERIAL       SUNNY     47  32  56 N15G23    29.77F
OGALLALA       SUNNY     47  31  52 N15G23    29.77F
NORTH PLATTE   PTSUNNY   44  31  60 NW18G28   29.78F
MCCOOK         SUNNY     48  31  51 N15G24    29.76F
LEXINGTON      CLOUDY    42  32  66 NW18G24   29.76S
STAPLETON        N/A     39  32  76 N3G13       N/A
GOTHENBURG       N/A     37  28  69 NW17        N/A  WCI  27
CALLAWAY         N/A     36  30  80 N20         N/A  WCI  25
$$

...OBSERVATIONS IN CENTRAL LINCOLN COUNTY AREA...

CITY           SKY/WX    TMP DP  RH WIND       PRES   REMARKS
N.P. AIRPORT   PTSUNNY   44  31  60 NW18G28   29.78F
N.P. DOWNTOWN    N/A     41  30  64 NW12        N/A
N.P. SOUTHEAST   N/A     42  30  61 N8G20       N/A
N.P. HILLCREST   N/A     40  29  64 N17G26      N/A  WCI  31
$$

...SOME OBSERVATIONS FROM AROUND THE REGION...

CITY           SKY/WX    TMP DP  RH WIND       PRES   REMARKS
DENVER         MOSUNNY   53  27  36 NE7       29.78F
LIMON          SUNNY     50  29  44 N14G22    29.79F
ASPEN          CLOUDY    37  31  78 CALM      29.88F
LARAMIE        CLOUDY    45  22  40 W21G30    29.78S
CASPER         PTSUNNY   50  28  42 SW12      29.74F
CHEYENNE       MOSUNNY   51  22  31 NW23G32   29.74F
SCOTTSBLUFF    SUNNY     49  31  49 CALM      29.76F
GRAND ISLAND   CLOUDY    42  32  67 N22G28    29.74F
OMAHA          CLOUDY    45  34  65 NW23G31   29.67F
SIOUX FALLS    CLOUDY    37  31  78 N16G25    29.67R WCI  28
PIERRE         PTSUNNY   42  27  55 N21G29    29.77F
RAPID CITY     CLOUDY    32  24  72 NW12      29.82F WCI  23
BISMARCK       CLOUDY    41  25  53 NE13      29.82F
KANSAS CITY    CLOUDY    47  40  76 N12       29.62F
HILL CITY      PTSUNNY   51  31  46 N14G25    29.76F
WICHITA        CLOUDY    48  36  63 N15       29.69F
DODGE CITY     SUNNY     51  30  44 N24G33    29.75S
OKLAHOMA CITY  CLOUDY    47  41  80 N13       29.70R
DALLAS         CLOUDY    60  51  72 NW24G35   29.61R
AMARILLO       MOSUNNY   57  35  43 N20G33    29.83F
$$




USA.gov is the U.S. government's official web portal to all federal, state and local government web resources and services.